GW0092 Weather Reports


time (UTC)temp
C
wind
direction
speed
KPH
gust
KPH
rain 1hr
cm
rain 24hr
cm
rain mn
cm
humidity
%
barometer
mb
20260508233057 14 134 3.2 8.0 0.00 0.05 0.00 71 1014.2
20260508231555 15 134 1.6 6.4 0.00 0.05 0.00 71 1014.2
20260508230054 16 157 1.6 6.4 0.00 0.05 0.00 68 1014.1
20260508224635 16 117 1.6 11.3 0.00 0.23 0.00 66 1014.1
20260508223055 16 143 4.8 12.9 0.00 0.23 0.00 64 1014.1
20260508221554 16 130 1.6 17.7 0.00 0.23 0.00 63 1014.0
20260508220057 17 134 1.6 9.7 0.00 0.23 0.00 59 1013.9
20260508214552 17 116 3.2 12.9 0.00 0.28 0.00 61 1013.9
20260508213054 17 129 4.8 16.1 0.00 0.28 0.00 59 1013.9
20260508211557 17 148 3.2 17.7 0.00 0.28 0.00 60 1013.8
20260508210056 17 211 1.6 12.9 0.00 0.28 0.00 63 1014.0
20260508204555 17 172 1.6 19.3 0.00 0.28 0.00 62 1014.1
20260508203103 17 42 1.6 16.1 0.00 0.28 0.00 61 1014.0
20260508201602 18 58 1.6 8.0 0.00 0.28 0.00 55 1014.0
20260508200054 17 142 3.2 9.7 0.00 0.28 0.00 59 1014.1
20260508194553 17 139 1.6 11.3 0.00 0.28 0.00 58 1014.2
20260508193100 17 165 3.2 14.5 0.00 0.28 0.00 59 1014.2
20260508191555 17 91 3.2 8.0 0.00 0.28 0.00 56 1014.2
20260508190051 16 125 4.8 16.1 0.00 0.28 0.00 56 1014.4
20260508184556 16 149 4.8 16.1 0.00 0.28 0.00 56 1014.9
20260508183053 17 157 3.2 12.9 0.00 0.28 0.00 55 1014.7
20260508181556 17 75 4.8 11.3 0.00 0.28 0.00 51 1014.9
20260508180056 17 148 3.2 14.5 0.00 0.28 0.00 52 1015.2
20260508174558 17 221 1.6 6.4 0.00 0.28 0.00 56 1015.2
20260508173054 17 193 3.2 11.3 0.00 0.28 0.00 53 1015.4
20260508171555 17 110 3.2 11.3 0.00 0.28 0.00 51 1015.6
20260508170100 18 194 0.0 6.4 0.00 0.28 0.00 54 1015.3
20260508164554 17 77 3.2 12.9 0.00 0.28 0.00 58 1015.5
20260508163055 17 326 3.2 11.3 0.00 0.28 0.00 53 1015.8
20260508161600 17 349 0.0 8.0 0.00 0.28 0.00 41 1015.9
20260508160055 17 11 3.2 12.9 0.00 0.28 0.00 42 1015.9
20260508154611 17 316 1.6 24.1 0.00 0.28 0.00 44 1015.9
20260508153057 16 301 4.8 11.3 0.00 0.28 0.00 43 1015.9
20260508151554 16 251 4.8 12.9 0.00 0.28 0.00 45 1016.2
20260508150108 16 329 1.6 11.3 0.00 0.28 0.00 53 1016.2
20260508144556 15 328 1.6 12.9 0.00 0.28 0.00 55 1016.2
20260508143124 15 334 1.6 11.3 0.00 0.28 0.00 60 1016.3
20260508141553 15 16 1.6 12.9 0.00 0.28 0.00 58 1016.3
20260508140107 14 334 4.8 11.3 0.00 0.28 0.00 60 1016.1
20260508134556 13 340 4.8 14.5 0.00 0.28 0.00 62 1016.1
20260508133104 13 317 6.4 16.1 0.00 0.28 0.00 70 1016.0
20260508131601 12 335 6.4 14.5 0.00 0.28 0.00 70 1016.1
20260508130054 12 344 6.4 12.9 0.00 0.28 0.00 72 1016.0
20260508124551 11 313 4.8 11.3 0.00 0.30 0.00 79 1015.9
20260508123054 11 340 3.2 12.9 0.00 0.30 0.00 79 1015.7
20260508121552 10 18 6.4 11.3 0.00 0.30 0.00 82 1015.6
20260508120052 10 353 4.8 11.3 0.00 0.30 0.00 83 1015.5
20260508114557 10 286 6.4 9.7 0.00 0.30 0.00 86 1015.3
20260508113056 9 305 3.2 9.7 0.00 0.30 0.00 89 1015.1
20260508111603 8 323 4.8 9.7 0.00 0.30 0.00 91 1014.9
20260508110056 8 297 3.2 6.4 0.00 0.30 0.00 93 1014.6
20260508104551 7 323 1.6 3.2 0.00 0.30 0.00 95 1014.5
20260508103054 7 308 1.6 3.2 0.00 0.30 0.00 95 1014.4
20260508101553 8 309 1.6 3.2 0.00 0.30 0.00 95 1014.2
20260508100054 8 274 3.2 6.4 0.00 0.30 0.00 95 1014.0
20260508094552 8 311 3.2 6.4 0.00 0.30 0.00 95 1013.9
20260508093054 8 271 1.6 8.0 0.00 0.30 0.00 97 1013.5
20260508091607 8 274 1.6 6.4 0.00 0.30 0.00 97 1013.3
20260508090055 8 1 1.6 6.4 0.00 0.30 0.00 97 1013.1
20260508084603 8 323 0.0 4.8 0.00 0.38 0.00 98 1013.0
20260508083103 8 311 1.6 4.8 0.00 0.38 0.00 98 1012.8
20260508081555 7 331 0.0 3.2 0.00 0.38 0.00 98 1012.6
20260508080106 7 330 1.6 4.8 0.00 0.38 0.00 97 1012.4
20260508074554 7 321 1.6 4.8 0.00 0.38 0.00 97 1012.4
20260508073056 8 0 0.0 4.8 0.00 0.38 0.00 97 1012.1
20260508071550 8 314 1.6 4.8 0.00 0.38 0.00 97 1011.9
20260508070057 7 340 1.6 4.8 0.00 0.38 0.00 97 1011.8
20260508064559 7 337 0.0 4.8 0.00 0.53 0.00 97 1011.5
20260508063054 8 311 1.6 3.2 0.00 0.53 0.00 97 1011.5
20260508061552 8 321 1.6 4.8 0.00 0.53 0.00 98 1011.6
20260508060052 8 329 1.6 4.8 0.00 0.53 0.00 98 1011.6
20260508054556 8 339 1.6 3.2 0.00 0.53 0.00 98 1011.6
20260508053059 8 323 0.0 1.6 0.00 0.53 0.00 98 1011.7
20260508051612 8 345 0.0 1.6 0.00 0.53 0.00 98 1011.8
20260508050111 8 337 0.0 1.6 0.00 0.53 0.00 98 1011.7
20260508044556 8 0 0.0 0.0 0.00 0.53 0.00 98 1011.6
20260508043105 9 0 0.0 3.2 0.00 0.53 0.00 98 1011.6
20260508041603 9 294 1.6 4.8 0.00 0.53 0.00 98 1011.4
20260508034552 9 324 1.6 8.0 0.00 0.53 0.53 98 1011.3
20260508033100 9 304 1.6 4.8 0.00 0.53 0.53 98 1011.3
20260508031555 8 0 0.0 0.0 0.00 0.53 0.53 97 1011.1
20260508030058 9 0 0.0 0.0 0.00 0.53 0.53 97 1011.0
20260508024556 9 0 0.0 0.0 0.00 0.53 0.53 96 1011.2
20260508023059 10 0 0.0 0.0 0.00 0.53 0.53 97 1011.3
20260508021601 10 0 0.0 0.0 0.00 0.53 0.53 97 1011.4
20260508020059 10 0 0.0 0.0 0.00 0.53 0.53 97 1011.3
20260508014555 10 0 0.0 0.0 0.00 0.53 0.53 96 1011.2
20260508013050 10 0 0.0 0.0 0.00 0.53 0.53 96 1011.0
20260508011553 10 0 0.0 0.0 0.00 0.53 0.53 96 1011.0
20260508010051 10 0 0.0 0.0 0.00 0.53 0.53 96 1010.7
20260508004554 10 0 0.0 0.0 0.00 0.53 0.53 96 1010.6
20260508003053 10 0 0.0 0.0 0.00 0.53 0.53 96 1010.3
20260508001556 10 0 0.0 0.0 0.00 0.53 0.53 96 1010.2
20260508000100 10 0 0.0 0.0 0.03 0.53 0.53 96 1009.9
20260507234603 10 0 0.0 0.0 0.08 0.53 0.53 96 1009.9